Minneapolis Flying Cloud, MN

8:49 AM CST on November 21, 2019 (GMT -0600)
Flying Cloud

Weather History for KFCM - September, 2019

Change the Weather History Date:

Saturday, September 28, 2019

  Actual Average Record
Temperature  
Mean Temperature 54 °F -  
Max Temperature 63 °F 64 °F 82 °F (2014)
Min Temperature 46 °F 44 °F 37 °F (2003)
Degree Days  
Heating Degree Days 10    
Growing Degree Days 4 (Base 50)    
Moisture  
Dew Point 41 °F    
Average Humidity 61    
Maximum Humidity 83    
Minimum Humidity 43    
Precipitation  
Precipitation 0.00 in - - ()
Sea Level Pressure  
Sea Level Pressure 30.16 in    
Wind  
Wind Speed 8 mph (NE)    
Max Wind Speed 15 mph    
Max Gust Speed 23 mph    
Visibility 10 miles    
Events      
Averages and records for this station are not official NWS values.
T = Trace of Precipitation, MM = Missing Value Source: NWS Daily Summary

Daily Weather History Graph

Daily Weather History Graph

Search for Another Location

Airport or City:

Astronomy

Sep. 28, 2019 Rise Set
Actual Time 7:07 AM CDT 7:00 PM CDT
Civil Twilight 6:38 AM CDT 7:29 PM CDT
Nautical Twilight 6:04 AM CDT 8:03 PM CDT
Astronomical Twilight 5:29 AM CDT 8:38 PM CDT
Moon 6:41 AM CDT (9/28) 7:28 PM CDT (9/28)
Length of Visible Light 12h 50m
Length of Day
11h 52m
Waning Crescent, 0% of the Moon is Illuminated
Sep 28
Waning Crescent
Sep 28
New
Oct 5
First Quarter
Oct 13
Full
Oct 21
Last Quarter

Hourly Weather History & Observations

Time (CDT) Temp. Windchill Dew Point Humidity Pressure Visibility Wind Dir Wind Speed Gust Speed Precip Events Conditions
12:53 AM 51.1 °F - 46.0 °F 83% 29.98 in 10.0 mi North 5.8 mph - N/A   Clear
1:53 AM 51.1 °F - 45.0 °F 80% 30.03 in 10.0 mi North 5.8 mph - N/A   Clear
2:53 AM 51.1 °F - 44.1 °F 77% 30.03 in 10.0 mi North 6.9 mph - N/A   Clear
3:53 AM 50.0 °F - 43.0 °F 77% 30.05 in 10.0 mi NNE 6.9 mph - N/A   Clear
4:53 AM 48.0 °F - 42.1 °F 80% 30.08 in 10.0 mi North 3.5 mph - N/A   Clear
5:53 AM 46.0 °F 43.1 °F 41.0 °F 83% 30.10 in 10.0 mi North 5.8 mph - N/A   Clear
6:53 AM 46.0 °F 42.5 °F 41.0 °F 83% 30.14 in 10.0 mi NNE 6.9 mph - N/A   Clear
7:53 AM 46.9 °F - 41.0 °F 80% 30.16 in 10.0 mi North 8.1 mph - N/A   Clear
8:53 AM 50.0 °F - 42.1 °F 74% 30.18 in 10.0 mi NNE 6.9 mph - N/A   Clear
9:53 AM 54.0 °F - 42.1 °F 64% 30.21 in 10.0 mi NE 9.2 mph - N/A   Clear
10:53 AM 55.9 °F - 39.0 °F 53% 30.22 in 10.0 mi NE 10.4 mph - N/A   Clear
11:53 AM 57.9 °F - 39.0 °F 49% 30.22 in 10.0 mi NNE 9.2 mph 23.0 mph N/A   Clear
12:53 PM 60.1 °F - 37.9 °F 44% 30.22 in 10.0 mi ENE 11.5 mph 20.7 mph N/A   Clear
1:53 PM 62.1 °F - 39.0 °F 43% 30.21 in 10.0 mi NE 11.5 mph - N/A   Clear
2:53 PM 63.0 °F - 39.9 °F 43% 30.19 in 10.0 mi NE 11.5 mph - N/A   Clear
3:53 PM 63.0 °F - 39.9 °F 43% 30.18 in 10.0 mi NE 12.7 mph 19.6 mph N/A   Clear
4:53 PM 61.0 °F - 39.9 °F 46% 30.19 in 10.0 mi ENE 8.1 mph - N/A   Clear
5:53 PM 60.1 °F - 39.9 °F 47% 30.19 in 10.0 mi East 9.2 mph - N/A   Clear
6:53 PM 59.0 °F - 41.0 °F 51% 30.22 in 10.0 mi ENE 4.6 mph - N/A   Clear
7:53 PM 57.9 °F - 41.0 °F 53% 30.20 in 10.0 mi ENE 9.2 mph - N/A   Clear
8:53 PM 57.9 °F - 41.0 °F 53% 30.21 in 10.0 mi ENE 11.5 mph 17.3 mph N/A   Scattered Clouds
9:53 PM 57.0 °F - 39.9 °F 53% 30.20 in 10.0 mi ENE 11.5 mph - N/A   Clear
10:53 PM 55.9 °F - 41.0 °F 57% 30.19 in 10.0 mi ENE 15.0 mph 23.0 mph N/A   Clear
11:53 PM 55.9 °F - 42.1 °F 60% 30.21 in 10.0 mi East 10.4 mph - N/A   Overcast